Location: Newark
(48.6461°N, 4.3644°W)
Time: 04:27:22
(UTC+00:00)

Transit 4A - Pass Details

Date: 24 January 2020
Orbit: 872 x 973 km, 66.8° (Epoch: 19 February)

Event Time Altitude Azimuth Distance (km) Brightness Sun altitude
Rises 16:38:39 0° 318° (NW) 3,472 11.0 2.5°
Reaches altitude 10° 16:41:23 10° 309° (NW) 2,529 10.5 2.1°
Maximum altitude 16:46:25 31° 249° (WSW) 1,486 10.2 1.4°
Drops below altitude 10° 16:51:28 10° 189° (S) 2,535 10.8 0.7°
Sets 16:54:13 0° 179° (S) 3,481 11.3 0.3°
